Regional Weather Roundup
Issued by NWS Grand Forks, ND

Home | Current Version | Previous Version | Text Only | Print | Product List | Glossary On
Versions: 1 2 3 4 5 6 7 8 9 10 11 12 13 14 15 16 17 18 19 20 21 22 23 24 25 26 27 28 29 30 31 32 33 34 35 36 37 38 39 40 41 42 43 44 45 46 47 48 49 50
000
ASUS43 KFGF 070331
RWRFGF
PRAIRIE TO PINES  WEATHER ROUNDUP
NATIONAL WEATHER SERVICE EASTERN NORTH DAKOTA/GRAND FORKS ND
1000 PM CDT MON JUL 06 2015

 **SATELLITE DATA USED TO AUGMENT SKY COVER AT AUTOMATED STATIONS**
 *****  WEATHER ACROSS EASTERN NORTH DAKOTA  *****

CITY           SKY/WX    TMP DP  RH WIND       PRES   REMARKS
GRAND FORKS    CLEAR     52  48  86 NW6       30.12S
GRAND FRKS AFB CLEAR     53  47  79 N5        30.14R
GRAND FRKS NWS   N/A     54 N/A N/A MISG        N/A
DEVILS LAKE    CLEAR     55  46  71 NE7       30.14R
FARGO          CLEAR     58  46  64 N8        30.12R
WAHPETON ARPT  CLEAR     54  45  71 NE6       30.14R
$$

 ***** WEATHER ACROSS CENTRAL AND WESTERN NORTH DAKOTA  *****

CITY           SKY/WX    TMP DP  RH WIND       PRES   REMARKS
BISMARCK       CLEAR     61  51  70 NE6       30.16R
MINOT          CLEAR     56  50  80 CALM      30.15S
JAMESTOWN      CLEAR     55  49  80 N6        30.13R
MINOT AFB      CLEAR     62  49  62 CALM      30.14S
GARRISON         N/A     59  50  72 NE3       30.16R
WILLISTON      CLEAR     63  47  55 E7        30.16S
DICKINSON      CLEAR     57  52  83 NE6       30.16R HAZE
HETTINGER      CLEAR     57  53  86 NE8       30.17S FOG
$$

 *****  OTHER AIRPORT OBSERVATIONS IN OUR AREA  *****

CITY           SKY/WX    TMP DP  RH WIND       PRES   REMARKS
WALHALLA       FAIR      54  54 100 MISG      30.14S
GRAFTON AIRPOR FAIR      55  50  82 NW6       30.14S
VALLEY CITY AR FAIR      55  50  82 NE6       30.15R
CANDO          FAIR      54  48  82 NE3       30.16R
CAVALIER APRT  FAIR      54  50  87 W3        30.14R
GWINNER        FAIR      57  50  77 N5        30.15R
SHEYENNE NWR     N/A     57  48  72 NE5       29.95S
ROLLA          FAIR      48  48 100 NW6       30.17S
 ***** THE ABOVE OBSERVATIONS ARE NON NWS ARE NOT QUALITY
       CONTROLLED AND MAY MIS-REPORT RAIN FOR SNOW...
$$

  *****  WEATHER ACROSS NORTHERN MINNESOTA  *****

CITY           SKY/WX    TMP DP  RH WIND       PRES   REMARKS
FLAG ISLAND    PTCLDY    61  46  59 W7        30.07R
WARROAD        CLEAR     54  48  82 W3        30.11R
ROSEAU         CLEAR     55  48  76 NW5       30.11R
HALLOCK        CLEAR     54  48  82 NW6       30.13R
THF RVR FALLS  CLEAR     52  46  82 CALM      30.13R
BAUDETTE       CLOUDY    55  46  71 N3        30.08R
WASKISH        CLOUDY    55  46  71 N5        30.10R
CROOKSTON      CLEAR     54  50  87 N5        30.14R
STEPHEN NDAWN    N/A     54  52  94 NW3         N/A
GREENBUSH NDAW   N/A     50  46  87 W2          N/A
$$
  *****  WEATHER ACROSS CENTRAL AND WEST MINNESOTA  *****

CITY           SKY/WX    TMP DP  RH WIND       PRES   REMARKS
FOSSTON        CLOUDY    54  46  76 CALM      30.13R
BEMIDJI        CLOUDY    55  46  73 NW5       30.11R
PARK RAPIDS    MOCLDY    56  45  66 NW8       30.10R
ELBOW LAKE     FAIR      57  47  69 N7        30.12R
WADENA         CLEAR     52  45  76 NW5       30.12R
DETROIT LAKES  CLEAR     54  45  71 CALM      30.14R
MOORHEAD       CLEAR     55  46  71 N6        30.14R
FERGUS FALLS   CLEAR     55  46  71 N3        30.13R
MORRIS MN      CLEAR     55  50  82 N6        30.12R
STAPLES        CLEAR     52  45  76 NW5       30.11R
$$
  *****  WEATHER ELSEWHERE ACROSS MINNESOTA  *****

CITY           SKY/WX    TMP DP  RH WIND       PRES   REMARKS
DULUTH         MOCLDY    57  45  64 N8        30.03R
INTRNTL FALLS  MOCLDY    53  44  71 NW5       30.07R
ELY            CLOUDY    54  39  58 NW8       30.04R
CLOQUET        MOCLDY    55  45  67 NW6       30.05R
WHEATON        CLEAR     54  48  82 N3        30.15R
BRAINERD       CLOUDY    58  46  64 N7        30.08R
HIBBING        CLOUDY    56  45  66 NW10      30.05R
ALEXANDRIA     CLEAR     58  46  64 N8        30.12R
SAINT CLOUD    CLOUDY    57  49  74 NW8       30.07R
MINNEAPOLIS    PTCLDY    63  49  60 N16G29    30.02R
$$

  *****  WEATHER ACROSS SOUTH DAKOTA  *****

CITY           SKY/WX    TMP DP  RH WIND       PRES   REMARKS
SIOUX FALLS    CLEAR     60  53  77 N8        30.09S
BROOKINGS      CLEAR     59  50  72 NE7       30.15R
WATERTOWN      CLEAR     58  51  78 NE6       30.13R
HURON          MOCLDY    63  55  75 NE6       30.12R HAZE
SISSETON         N/A     55  49  80 N6        30.11R
ABERDEEN       CLEAR     62  54  74 N7        30.13R
MITCHELL       CLEAR     63  57  81 N5        30.12R
PIERRE         LGT RAIN  65  55  70 NE3       30.12R
MOBRIDGE       CLEAR     63  56  78 NE9       30.12R HAZE
RAPID CITY     MOCLDY    63  57  81 NW5       30.18S
$$

  *****  SOME WEATHER IN NEARBY STATES *****

CITY           SKY/WX    TMP DP  RH WIND       PRES   REMARKS
GLASGOW MT     CLEAR     66  45  46 SE6       30.11S
GREAT FALLS MT CLEAR     67  48  50 E9        30.08S
CHEYENNE WY    CLOUDY    57  52  83 SE8       30.30R HAZE
SCOTTSBLUFF NE CLOUDY    65  59  81 E3        30.22R HAZE
OMAHA NE       CLOUDY    67  64  90 N5        30.01R FOG
DES MOINES IA  CLOUDY    70  59  68 N12       29.96R HAZE
DAVENPORT IA   LGT RAIN  72  70  93 SW7       29.88R
CHICAGO IL     CLOUDY    73  68  84 S13       29.84F THUNDER
EAU CLAIRE WI  CLOUDY    59  57  93 NW3       29.96R FOG
LA CROSSE WI   CLOUDY    63  57  81 N9        29.96R HAZE
$$

  *****  SOME NATIONAL WEATHER *****

CITY           SKY/WX    TMP DP  RH WIND       PRES   REMARKS
LA GUARDIA NY  CLOUDY    75  64  68 S8        30.10S
RALEIGH NC     MOCLDY    75  68  78 W3        30.09R
ATLANTA GA     PTCLDY    76  70  82 W5        30.12R
NEW ORLEANS LA PTCLDY    82  75  79 S6        30.06R
OKLAHOMA CITY  CLOUDY    81  71  71 SE13      29.92R
ALBUQUERQUE NM MOCLDY    74  56  53 E15       30.10R
SALT LAKE CITY MOCLDY    79  55  43 S12       30.04S
LOS ANGELES CA CLOUDY    63  59  87 W10       29.99R
BOISE ID       PTCLDY    88  49  25 CALM      29.93S
SEATTLE WA     MOCLDY    78  51  38 SW8       29.97S
$$

*** WEATHER ACROSS MANITOBA...SASKATCHEWAN AND ONTARIO ***
                ***ONTARIO***

CITY           SKY/WX    TMP DP  RH WIND       PRES   REMARKS
GERALDTON      MOCLDY    54  45  71 NW6       29.90R
THUNDER BAY    PTCLDY    52  45  76 NW5       29.97R
SIOUX LOOKOUT  MOCLDY    54  46  76 NW5       30.03S
TORONTO        PTCLDY    68  64  88 S5        29.95
BIG TROUT LK   CLOUDY    54  46  76 W6        29.91S
PICKLE LAKE    NOT AVBL
DRYDEN         CLOUDY    54  46  76 W3        30.05R
KENORA         PTCLDY    55  45  67 SW3       30.08R
$$
                *** MANITOBA***

CITY           SKY/WX    TMP DP  RH WIND       PRES   REMARKS
BRANDON        CLEAR     55  46  71 W6        30.14S
DAUPHIN        CLEAR     55  48  76 S6        30.10S
ISLAND LAKE    PTCLDY    61  48  63 SW6       29.96S
PILOT MOUND      N/A     54  48  82 E3          N/A
THE PAS        PTCLDY    66  46  48 W10G17    30.00F
THOMPSON       CLEAR     63  46  55 SW3       29.90F
WINNIPEG       PTCLDY    52  46  82 W7        30.12R
LYNN LAKE      HAZE      64  46  52 SW7       29.86F VSB 5/8
CHURCHILL      MOCLDY    55  46  71 S12       29.76F
GILLAM         LGT RAIN  59  54  82 SW7       29.86F
$$
                ***SASKATCHEWAN***

CITY           SKY/WX    TMP DP  RH WIND       PRES   REMARKS
ESTEVAN        PTCLDY    57  45  62 SE5       30.15F
KINDERSLEY     PTCLDY    61  50  67 SE7       30.05F
LLOYDMINSTER   PTCLDY    61  48  63 E7        30.04S
PRINCE ALBERT  MOCLDY    57  50  77 SE3       30.05S
REGINA         MOCLDY    61  45  55 E7        30.13S
YORKTON        CLEAR     61  48  63 SW6       30.11S
N. BATTLEFORD  CLEAR     59  50  72 NE5       30.07S
LA RONGE         N/A     61  45  55 S7        29.96F SMOKE
SASKATOON      MOCLDY    64  48  55 S10       30.07F
SWIFT CURRENT  CLEAR     61  50  67 S8        30.08F
$$
NOTE: THESE ARE AUTOMATED STATIONS WITH LIMITED QUALITY CONTROL
      "FAIR" INDICATES FEW OR NO CLOUDS BELOW 12,000 FEET WITH NO
      SIGNIFICANT WEATHER AND/OR OBSTRUCTIONS TO VISIBILITY.
      SKY/WX - SKY CONDITION AND SIGNIFICANT WEATHER.
      TMP - AIR TEMPERATURE.    DP   - DEWPOINT TEMPERATURE.
      RH  - RELATIVE HUMIDITY.  PRES - PRESSURE.
      HX  - HEAT INDEX.         WCI  - WIND CHILL INDEX.
$


USA.gov is the U.S. government's official web portal to all federal, state and local government web resources and services.